Weather History for Milano / Linate, Italy

Change the Weather History Date:

Wednesday, May 8, 2013

  Actual Average Record
Temperature  
Mean Temperature 64 °F -  
Max Temperature 75 °F 73 °F - ()
Min Temperature 53 °F 54 °F - ()
Degree Days  
Heating Degree Days 1    
Growing Degree Days 14 (Base 50)    
Moisture  
Dew Point 54 °F    
Average Humidity 70    
Maximum Humidity 100    
Minimum Humidity 41    
Precipitation  
Precipitation 0.00 in 0.12 in - ()
Sea Level Pressure  
Sea Level Pressure 29.97 in    
Wind  
Wind Speed 2 mph ()    
Max Wind Speed 9 mph    
Max Gust Speed -    
Visibility 6.1 miles    
Events Fog    
T = Trace of Precipitation, MM = Missing Value Source: Averaged Metar Reports

Daily Weather History Graph

Daily Weather History Graph

Search for Another Location

Airport:

Trip Planner

Search our weather history database for the weather conditions in past years. The results will help you decide how hot, cold, wet, or windy it might be!

Date:

Astronomy

May. 08, 2013 Rise Set
Actual Time 6:01 AM CEST 8:38 PM CEST
Civil Twilight 5:27 AM CEST 9:12 PM CEST
Nautical Twilight 4:45 AM CEST 9:54 PM CEST
Astronomical Twilight 3:56 AM CEST 10:43 PM CEST
Moon 5:04 AM CEST (5/8) 7:17 PM CEST (5/8)
Length of Visible Light 15h 44m
Length of Day
14h 37m
Waning Crescent, 2% of the Moon is Illuminated
May 8
Waning Crescent
May 10
New
May 18
First Quarter
May 25
Full
May 31
Last Quarter

Hourly Weather History & Observations

Time (CEST) Temp. Dew Point Humidity Pressure Visibility Wind Dir Wind Speed Gust Speed Precip Events Conditions
12:20 AM 59.0 °F 53.6 °F 82% 29.95 in 6.2 mi Variable 1.2 mph - N/A   Scattered Clouds
12:50 AM 57.2 °F 53.6 °F 88% 29.98 in 6.2 mi Variable 2.3 mph - N/A   Scattered Clouds
1:20 AM 57.2 °F 55.4 °F 94% 29.98 in 6.2 mi Variable 2.3 mph - N/A   Scattered Clouds
1:50 AM 59.0 °F 55.4 °F 88% 29.98 in 6.2 mi Variable 2.3 mph - N/A   Scattered Clouds
2:20 AM 57.2 °F 55.4 °F 94% 29.98 in 6.2 mi Variable 2.3 mph - N/A   Scattered Clouds
2:50 AM 57.2 °F 55.4 °F 94% 29.95 in 6.2 mi Variable 1.2 mph - N/A   Scattered Clouds
3:20 AM 57.2 °F 55.4 °F 94% 29.95 in 6.2 mi Variable 2.3 mph - N/A   Scattered Clouds
3:50 AM 55.4 °F 53.6 °F 94% 29.95 in 6.2 mi Variable 1.2 mph - N/A   Scattered Clouds
4:20 AM 55.4 °F 53.6 °F 94% 29.95 in 6.2 mi Variable 2.3 mph - N/A   Scattered Clouds
4:50 AM 55.4 °F 53.6 °F 94% 29.95 in 6.2 mi SSW 2.3 mph - N/A   Scattered Clouds
5:20 AM 53.6 °F 53.6 °F 100% 29.95 in 6.2 mi Calm Calm - N/A Fog Shallow Fog
5:50 AM 53.6 °F 53.6 °F 100% 29.95 in 6.2 mi Variable 1.2 mph - N/A Fog Shallow Fog
6:20 AM 53.6 °F 53.6 °F 100% 29.95 in 6.2 mi Calm Calm - N/A Fog Shallow Fog
6:50 AM 53.6 °F 53.6 °F 100% 29.98 in 6.2 mi Calm Calm - N/A Fog Shallow Fog
7:20 AM 55.4 °F 55.4 °F 100% 29.98 in 5.0 mi Variable 1.2 mph - N/A   Unknown
7:50 AM 59.0 °F 57.2 °F 94% 29.98 in 5.0 mi Variable 1.2 mph - N/A   Unknown
8:20 AM 62.6 °F 57.2 °F 82% 29.98 in - Variable 1.2 mph - N/A   Clear
8:50 AM 64.4 °F 53.6 °F 68% 30.01 in - Variable 2.3 mph - N/A   Clear
9:20 AM 64.4 °F 53.6 °F 68% 30.01 in - Variable 2.3 mph - N/A   Clear
9:50 AM 68.0 °F 55.4 °F 64% 30.01 in - Variable 1.2 mph - N/A   Clear
10:20 AM 68.0 °F 55.4 °F 64% 29.98 in - Variable 1.2 mph - N/A   Clear
10:50 AM 68.0 °F 55.4 °F 64% 29.98 in - Variable 2.3 mph - N/A   Clear
11:20 AM 69.8 °F 53.6 °F 56% 29.98 in 6.2 mi Variable 2.3 mph - N/A   Partly Cloudy
11:50 AM 69.8 °F 53.6 °F 56% 29.98 in 6.2 mi East 5.8 mph - N/A   Partly Cloudy
12:20 PM 71.6 °F 53.6 °F 53% 29.98 in 6.2 mi Variable 2.3 mph - N/A   Partly Cloudy
12:50 PM 71.6 °F 55.4 °F 57% 29.98 in 6.2 mi NW 3.5 mph - N/A   Scattered Clouds
1:20 PM 71.6 °F 51.8 °F 50% 29.98 in 6.2 mi Variable 2.3 mph - N/A   Scattered Clouds
1:50 PM 73.4 °F 51.8 °F 47% 29.98 in 6.2 mi Variable 3.5 mph - N/A   Scattered Clouds
2:20 PM 73.4 °F 51.8 °F 47% 29.98 in 6.2 mi Variable 3.5 mph - N/A   Scattered Clouds
2:50 PM 73.4 °F 53.6 °F 50% 29.95 in 6.2 mi South 4.6 mph - N/A   Scattered Clouds
3:20 PM 73.4 °F 53.6 °F 50% 29.95 in 6.2 mi Variable 4.6 mph - N/A   Scattered Clouds
3:50 PM 73.4 °F 51.8 °F 47% 29.95 in 6.2 mi ENE 4.6 mph - N/A   Scattered Clouds
4:20 PM 73.4 °F 57.2 °F 57% 29.95 in 6.2 mi ESE 5.8 mph - N/A   Scattered Clouds
4:50 PM 75.2 °F 50.0 °F 41% 29.95 in 6.2 mi Variable 4.6 mph - N/A   Scattered Clouds
5:20 PM 75.2 °F 53.6 °F 47% 29.92 in 6.2 mi ESE 6.9 mph - N/A   Scattered Clouds
5:50 PM 73.4 °F 50.0 °F 44% 29.92 in 6.2 mi East 8.1 mph - N/A   Partly Cloudy
6:20 PM 73.4 °F 53.6 °F 50% 29.92 in 6.2 mi ESE 9.2 mph - N/A   Partly Cloudy
6:50 PM 71.6 °F 53.6 °F 53% 29.92 in - East 8.1 mph - N/A   Clear
7:20 PM 71.6 °F 51.8 °F 50% 29.95 in - ESE 4.6 mph - N/A   Clear
7:50 PM 69.8 °F 53.6 °F 56% 29.95 in - South 3.5 mph - N/A   Clear
8:20 PM 69.8 °F 53.6 °F 56% 29.95 in - SE 5.8 mph - N/A   Clear
8:50 PM 69.8 °F 53.6 °F 56% 29.95 in - SE 4.6 mph - N/A   Clear
9:20 PM 68.0 °F 55.4 °F 64% 29.98 in - Variable 1.2 mph - N/A   Clear
9:50 PM 66.2 °F 57.2 °F 73% 29.98 in - Variable 2.3 mph - N/A   Clear
10:20 PM 66.2 °F 55.4 °F 68% 29.98 in - East 4.6 mph - N/A   Clear
10:50 PM 66.2 °F 55.4 °F 68% 29.98 in - East 3.5 mph - N/A   Clear
11:20 PM 64.4 °F 57.2 °F 77% 29.98 in - East 3.5 mph - N/A   Clear
11:50 PM 64.4 °F 57.2 °F 77% 30.01 in - Variable 2.3 mph - N/A   Clear